Regional Weather Roundup
Issued by NWS Albany, NY

Home | Current Version | Previous Version | Text Only | Print | Product List | Glossary On
Versions: 1 2 3 4 5 6 7 8 9 10 11 12 13 14 15 16 17 18 19 20 21 22 23 24 25 26 27 28 29 30 31 32 33 34 35 36 37 38 39 40 41 42 43 44 45 46 47 48 49 50
000
ASUS41 KALY 240510
RWRALY

NEW YORK STATE HOURLY WEATHER ROUNDUP
NATIONAL WEATHER SERVICE ALBANY NY
100 AM EDT THU JUL 24 2014

NOTE: "FAIR" INDICATES FEW OR NO CLOUDS BELOW 12,000 FEET WITH NO
SIGNIFICANT WEATHER AND/OR NO OBSTRUCTIONS TO VISIBILITY.

NYZ032-033-038>043-046>054-057>066-NYZ062>081-240600-
EAST


CITY           SKY/WX    TMP DP  RH WIND       PRES   REMARKS
ALBANY         CLOUDY    70  67  90 N3        29.85S
GLENS FALLS    MOCLDY    67  61  81 NW8       29.84F
POUGHKEEPSIE   LGT RAIN  72  70  93 CALM      29.80F
NEWBURGH       CLOUDY    72  72 100 CALM      29.84F
MONTGOMERY     CLOUDY    71  68  90 NW5       29.83F
WHITE PLAINS   CLOUDY    73  69  87 NW8       29.81S
ISLIP          CLOUDY    76  70  82 CALM      29.76F
NEW YORK CITY  CLOUDY    77  68  73 NW8       29.78F
CENTRAL PARK   CLOUDY    75  69  81 VRB3      29.83F
$$

NYZ005>009-017-018-044>046-055-056-240600-
CENTRAL


CITY           SKY/WX    TMP DP  RH WIND       PRES   REMARKS
FULTON         CLOUDY    67  56  67 N6        29.93F
SYRACUSE       CLOUDY    67  59  75 NW3       29.92F
ROME           CLOUDY    64  59  83 W3        29.92F
ELMIRA         CLOUDY    65  59  81 N5        29.95R
BINGHAMTON     MOCLDY    63  60  90 N8        29.94S
MONTICELLO     CLOUDY    64  63  94 NW7       29.91S
$$

NYZ026>034-041>043-240600-
NORTH


CITY           SKY/WX    TMP DP  RH WIND       PRES   REMARKS
WATERTOWN      PTCLDY    62  53  72 N6        29.93S
FORT DRUM      NOT AVBL
MASSENA        PTCLDY    63  52  67 NW10      29.92R
SARANAC LAKE   CLOUDY    59  55  87 CALM      29.91F
PLATTSBURGH    LGT RAIN  67  56  67 NW5       29.86S
$$

NYZ001>004-010>016-019>021-240600-
WEST


CITY           SKY/WX    TMP DP  RH WIND       PRES   REMARKS
NIAGARA FALLS  CLEAR     62  54  74 NW7       30.00S
BUFFALO        PTCLDY    63  55  75 NW7       30.00R
DUNKIRK        CLOUDY    65  54  67 N10       30.00F
JAMESTOWN      CLOUDY    59  54  82 N6        30.02F
WELLSVILLE     CLOUDY    62  55  77 N7        30.03R
ROCHESTER      CLOUDY    66  59  78 NW5       29.97F
PENN YAN       CLOUDY    65  58  78 NW6       29.97S
$$

             KEY
       WCI = WIND CHILL INDEX
       VSB = VISIBILITY
       HX  = HEAT INDEX
$$



USA.gov is the U.S. government's official web portal to all federal, state and local government web resources and services.